Matala Airport

Jump to: basic info | weather | runways | comments

Related pages: nearby airports | nearby navaids | notams | map

Basic information (top)

Codes: FN18
Location: lon -14.727500, lat 15.014000, elev 4,120 ft / 1,256 m msl
Status: small_airport

Weather (top)

Current conditions for Lubango Airport 84nm (156km) W (rec'd 2015/02/26 07:00Z):

FNUB 260700Z 20004KT 9999 FEW009 BKN034 16/16 Q1022

Airport forecast for Lubango Airport 84nm (156km) W (rec'd 2015/03/03 12:26Z):

TAF FNUB 031100Z 0312/0324 32005KT 9999 SCT025 
      TEMPO 0316/0320 8000 -RA FEW020 BKN025

Runways (top)

10/28: 8,015 x 98 ft (2,443 x 30 m) — paved — not lighted

Latest comments (top)

No comments yet for Matala Airport

More... (top)

See also NOTAMs and nearby airports and navaids, or visit the Matala Airport page at the main OurAirports website..